Weather History for Columbia Airport, CA

Change the Weather History Date:

Saturday, August 3, 2013

  Actual Average (KMOD) Record (KMOD)
Temperature  
Mean Temperature 71 °F -  
Max Temperature 89 °F 95 °F 106 °F (1998)
Min Temperature 53 °F 63 °F 51 °F (1962)
Degree Days  
Heating Degree Days 0 0  
Month to date heating degree days 0  
Since 1 June heating degree days 3  
Since 1 July heating degree days 0  
Cooling Degree Days 6 14  
Month to date cooling degree days 42  
Year to date cooling degree days 977  
Since 1 June cooling degree days 778  
Growing Degree Days 21 (Base 50)    
Moisture  
Dew Point 36 °F    
Average Humidity 32    
Maximum Humidity 58    
Minimum Humidity 13    
Precipitation  
Precipitation 0.00 in 0.00 in 0.00 in (2014)
Month to date precipitation 0.00  
Year to date precipitation 8.75  
Since 1 July precipitation T  
Snow  
Snow 0.00 in - - ()
Month to date snowfall  
Since 1 June snowfall  
Since 1 July snowfall  
Snow Depth -    
Sea Level Pressure  
Sea Level Pressure 29.96 in    
Wind  
Wind Speed 2 mph (SSW)    
Max Wind Speed 8 mph    
Max Gust Speed 20 mph    
Visibility 10 miles    
Events      
T = Trace of Precipitation, MM = Missing Value Source: NWS Daily Summary

Daily Weather History Graph

Daily Weather History Graph

Search for Another Location

Airport:

Trip Planner

Search our weather history database for the weather conditions in past years. The results will help you decide how hot, cold, wet, or windy it might be!

Date:

Astronomy

Aug. 03, 2013 Rise Set
Actual Time 6:06 AM PDT 8:08 PM PDT
Civil Twilight 5:37 AM PDT 8:37 PM PDT
Nautical Twilight 5:02 AM PDT 9:12 PM PDT
Astronomical Twilight 4:23 AM PDT 9:50 PM PDT
Moon 3:20 AM PDT (8/3) 5:54 PM PDT (8/3)
Length of Visible Light 14h 59m
Length of Day
14h 01m
Waning Crescent, 9% of the Moon is Illuminated
Aug 3
Waning Crescent
Aug 6
New
Aug 14
First Quarter
Aug 20
Full
Aug 28
Last Quarter

Hourly Weather History & Observations

Time (PDT) Temp. Dew Point Humidity Pressure Visibility Wind Dir Wind Speed Gust Speed Precip Events Conditions
12:15 AM 59.0 °F 39.2 °F 48% 29.96 in 10.0 mi Calm Calm - N/A   Clear
12:35 AM 59.0 °F 39.2 °F 48% 29.96 in 10.0 mi Calm Calm - N/A   Clear
12:55 AM 57.2 °F 41.0 °F 55% 29.96 in 10.0 mi Calm Calm - N/A   Clear
1:15 AM 57.2 °F 41.0 °F 55% 29.96 in 10.0 mi Calm Calm - N/A   Clear
1:35 AM 57.2 °F 41.0 °F 55% 29.96 in 10.0 mi Calm Calm - N/A   Clear
1:55 AM 57.2 °F 39.2 °F 51% 29.95 in 10.0 mi Calm Calm - N/A   Clear
2:15 AM 57.2 °F 41.0 °F 55% 29.95 in 10.0 mi Calm Calm - N/A   Partly Cloudy
2:35 AM 57.2 °F 41.0 °F 55% 29.95 in 10.0 mi Calm Calm - N/A   Mostly Cloudy
2:55 AM 57.2 °F 41.0 °F 55% 29.95 in 10.0 mi Calm Calm - N/A   Overcast
3:15 AM 57.2 °F 41.0 °F 55% 29.94 in 10.0 mi Calm Calm - N/A   Mostly Cloudy
3:35 AM 55.4 °F 41.0 °F 58% 29.94 in 10.0 mi Calm Calm - N/A   Mostly Cloudy
3:55 AM 55.4 °F 41.0 °F 58% 29.94 in 10.0 mi Calm Calm - N/A   Mostly Cloudy
4:15 AM 55.4 °F 41.0 °F 58% 29.94 in 10.0 mi Calm Calm - N/A   Overcast
4:35 AM 55.4 °F 41.0 °F 58% 29.94 in 10.0 mi Calm Calm - N/A   Mostly Cloudy
4:55 AM 55.4 °F 39.2 °F 54% 29.94 in 10.0 mi Calm Calm - N/A   Scattered Clouds
5:15 AM 53.6 °F 39.2 °F 58% 29.94 in 10.0 mi Calm Calm - N/A   Mostly Cloudy
5:35 AM 53.6 °F 39.2 °F 58% 29.95 in 10.0 mi Calm Calm - N/A   Scattered Clouds
5:55 AM 53.6 °F 39.2 °F 58% 29.96 in 10.0 mi Calm Calm - N/A   Clear
6:15 AM 55.4 °F 39.2 °F 54% 29.96 in 10.0 mi Calm Calm - N/A   Clear
6:35 AM 55.4 °F 41.0 °F 58% 29.96 in 10.0 mi Calm Calm - N/A   Clear
6:55 AM 57.2 °F 41.0 °F 55% 29.97 in 10.0 mi Calm Calm - N/A   Clear
7:15 AM 62.6 °F 41.0 °F 45% 29.97 in 10.0 mi Calm Calm - N/A   Clear
7:35 AM 66.2 °F 44.6 °F 46% 29.97 in 10.0 mi Calm Calm - N/A   Clear
7:55 AM 69.8 °F 46.4 °F 43% 29.98 in 10.0 mi Calm Calm - N/A   Clear
8:15 AM 73.4 °F 41.0 °F 31% 29.98 in 10.0 mi Calm Calm - N/A   Clear
8:35 AM 77.0 °F 37.4 °F 24% 29.99 in 10.0 mi Calm Calm - N/A   Clear
8:55 AM 77.0 °F 37.4 °F 24% 29.99 in 10.0 mi Calm Calm - N/A   Clear
9:15 AM 78.8 °F 37.4 °F 23% 29.98 in 10.0 mi South 3.5 mph - N/A   Clear
9:35 AM 80.6 °F 37.4 °F 21% 29.98 in 10.0 mi South 3.5 mph - N/A   Clear
9:55 AM 82.4 °F 37.4 °F 20% 29.99 in 10.0 mi SSW 5.8 mph - N/A   Clear
10:15 AM 82.4 °F 35.6 °F 19% 29.99 in 10.0 mi SSE 5.8 mph - N/A   Clear
10:35 AM 84.2 °F 35.6 °F 18% 29.99 in 10.0 mi South 5.8 mph - N/A   Clear
10:55 AM 84.2 °F 32.0 °F 15% 29.99 in 10.0 mi South 5.8 mph - N/A   Clear
11:15 AM 86.0 °F 33.8 °F 15% 29.98 in 10.0 mi SE 4.6 mph - N/A   Clear
11:35 AM 86.0 °F 35.6 °F 17% 29.98 in 10.0 mi WSW 5.8 mph - N/A   Clear
11:55 AM 86.0 °F 35.6 °F 17% 29.98 in 10.0 mi SSW 5.8 mph - N/A   Clear
12:15 PM 84.2 °F 35.6 °F 18% 29.98 in 10.0 mi SW 5.8 mph - N/A   Clear
12:35 PM 87.8 °F 33.8 °F 15% 29.98 in 10.0 mi WSW 5.8 mph 19.6 mph N/A   Clear
12:55 PM 87.8 °F 32.0 °F 14% 29.98 in 10.0 mi SSE 6.9 mph 17.3 mph N/A   Clear
1:15 PM 86.0 °F 32.0 °F 14% 29.98 in 10.0 mi SSW 8.1 mph - N/A   Clear
1:35 PM 86.0 °F 32.0 °F 14% 29.98 in 10.0 mi SE 4.6 mph - N/A   Clear
1:55 PM 87.8 °F 30.2 °F 13% 29.98 in 10.0 mi SSE 6.9 mph - N/A   Clear
2:15 PM 87.8 °F 30.2 °F 13% 29.97 in 10.0 mi SSW 6.9 mph - N/A   Clear
2:35 PM 86.0 °F 30.2 °F 13% 29.97 in 10.0 mi SSW 6.9 mph - N/A   Clear
2:55 PM 86.0 °F 32.0 °F 14% 29.97 in 10.0 mi SSW 5.8 mph - N/A   Clear
3:15 PM 87.8 °F 32.0 °F 14% 29.96 in 10.0 mi West 6.9 mph - N/A   Clear
3:35 PM 89.6 °F 32.0 °F 13% 29.96 in 10.0 mi SW 6.9 mph - N/A   Clear
3:55 PM 89.6 °F 32.0 °F 13% 29.96 in 10.0 mi WSW 6.9 mph - N/A   Clear
4:15 PM 89.6 °F 32.0 °F 13% 29.96 in 10.0 mi SW 8.1 mph - N/A   Clear
4:35 PM 89.6 °F 32.0 °F 13% 29.96 in 10.0 mi WSW 5.8 mph - N/A   Clear
4:55 PM 89.6 °F 32.0 °F 13% 29.95 in 10.0 mi South 6.9 mph - N/A   Clear
5:15 PM 86.0 °F 32.0 °F 14% 29.95 in 10.0 mi SSW 5.8 mph - N/A   Clear
5:35 PM 86.0 °F 32.0 °F 14% 29.94 in 10.0 mi SSW 4.6 mph - N/A   Clear
5:55 PM 86.0 °F 32.0 °F 14% 29.94 in 10.0 mi SW 5.8 mph - N/A   Clear
6:15 PM 86.0 °F 32.0 °F 14% 29.94 in 10.0 mi SW 4.6 mph - N/A   Clear
6:35 PM 86.0 °F 30.2 °F 13% 29.94 in 10.0 mi SSW 5.8 mph - N/A   Clear
6:55 PM 84.2 °F 28.4 °F 13% 29.94 in 10.0 mi WSW 4.6 mph - N/A   Clear
7:15 PM 82.4 °F 30.2 °F 15% 29.95 in 10.0 mi WSW 3.5 mph - N/A   Clear
7:35 PM 80.6 °F 32.0 °F 17% 29.95 in 10.0 mi WSW 3.5 mph - N/A   Clear
7:55 PM 75.2 °F 32.0 °F 21% 29.95 in 10.0 mi Calm Calm - N/A   Clear
8:15 PM 73.4 °F 33.8 °F 23% 29.96 in 10.0 mi Calm Calm - N/A   Clear
8:35 PM 71.6 °F 33.8 °F 25% 29.96 in 10.0 mi Calm Calm - N/A   Clear
8:55 PM 68.0 °F 35.6 °F 30% 29.97 in 10.0 mi NE 3.5 mph - N/A   Clear
9:15 PM 66.2 °F 35.6 °F 32% 29.97 in 10.0 mi Calm Calm - N/A   Clear
9:35 PM 68.0 °F 35.6 °F 30% 29.98 in 10.0 mi NE 3.5 mph - N/A   Clear
9:55 PM 66.2 °F 35.6 °F 32% 29.98 in 10.0 mi Calm Calm - N/A   Clear
10:15 PM 64.4 °F 37.4 °F 37% 29.97 in 10.0 mi Calm Calm - N/A   Clear
10:35 PM 62.6 °F 37.4 °F 39% 29.97 in 10.0 mi Calm Calm - N/A   Clear
10:55 PM 62.6 °F 37.4 °F 39% 29.98 in 10.0 mi Calm Calm - N/A   Clear
11:15 PM 62.6 °F 37.4 °F 39% 29.98 in 10.0 mi Calm Calm - N/A   Clear
11:35 PM 60.8 °F 39.2 °F 45% 29.99 in 10.0 mi Calm Calm - N/A   Clear
11:55 PM 59.0 °F 39.2 °F 48% 29.99 in 10.0 mi Calm Calm - N/A   Partly Cloudy